Regional Weather Roundup
Issued by NWS Upton, NY

Current Version | Previous Version | Graphics & Text | Print | Product List | Glossary Off
Versions: 1 2 3 4 5 6 7 8 9 10 11 12 13 14 15 16 17 18 19 20 21 22 23 24 25 26 27 28

000
ASUS41 KOKX 200505
RWROKX

Regional Weather Roundup
National Weather Service New York NY
100 AM EDT FRI APR 20 2018

Note: "FAIR" indicates few or no clouds below 12,000 feet with no
significant weather and/or obstructions to visibility.

NYZ071-072-176-178-NJZ106-104-200600-
New York City Metro Area

CITY           SKY/WX    TMP DP  RH WIND       PRES   REMARKS
Central Park   FAIR      38  23  55 W9        30.04R WCI  31
Bronx Bot Gard   N/A     37  23  56 W20       30.03R WCI  27
Bronx Lehman C   N/A     37  25  60 NW12        N/A  WCI  30
LaGuardia Arpt FAIR      40  24  53 NW18      30.02R WCI  31
Queens College   N/A     37  25  60 W14         N/A  WCI  29
Kennedy Intl   FAIR      38  24  57 NW17G24   30.03R WCI  28
Breezy Point     N/A     37 N/A N/A NW14G22     N/A  WCI  29
Brooklyn Coll    N/A     39  25  56 NW14        N/A  WCI  31
Staten Island    N/A     37  25  60 NW10G23     N/A  WCI  30
Newark/Liberty FAIR      38  25  59 W12       30.04R WCI  30
Teterboro      FAIR      38  23  55 NW17G24   30.02R WCI  28
$$

NYZ177-179-078>081-200600-
Long Island New York

CITY           SKY/WX    TMP DP  RH WIND       PRES   REMARKS
Jones Beach      N/A     39 N/A N/A NW18G26     N/A  WCI  30
Wantagh          N/A     37  25  60 W12         N/A  WCI  30
Hempstead        N/A     37  27  65 NW5       30.03R WCI  34
Matinecock Pt    N/A     39 N/A N/A W23G29      N/A  WCI  29
Farmingdale    FAIR      37  25  61 NW9G20    30.00R WCI  30
MacArthur/ISP  FAIR      37  26  64 NW12      29.97R WCI  29
Stony Brook      N/A     37  28  70 NW10        N/A  WCI  30
Shirley        FAIR      38  28  67 NW12      29.97R WCI  30
Mt Sinai Harb    N/A    N/A N/A N/A W12G18      N/A
Westhampton    FAIR      37  26  64 NW12      29.97R WCI  29
East Hampton   FAIR      38  26  62 NW8G16    29.94R WCI  32
Southold         N/A     39  28  65 NW15G26     N/A  WCI  31
Montauk          N/A     41  29  62 NW14G25   29.93R
$$

NYZ052-065-067-200600-
Hudson Valley

CITY           SKY/WX    TMP DP  RH WIND       PRES   REMARKS
White Plains   FAIR      36  23  59 W16G25    29.98R WCI  26
Larchmont Harb   N/A     37 N/A N/A W16G22      N/A  WCI  28
Croton On Huds   N/A     37 N/A N/A SW21        N/A  WCI  27
Somers           N/A     34  25  69 NW9         N/A  WCI  26
Brewster         N/A     34  25  69 NW8G20      N/A  WCI  27
Newburgh       MOCLDY    34  25  69 W9        30.00R WCI  26
Montgomery     MOCLDY    36  23  59 W8        30.00R WCI  30
Otisville        N/A     34  25  69 NW6         N/A  WCI  29
Warwick          N/A     34  25  69 W9          N/A  WCI  26
Suffern          N/A     34  25  69 NW8         N/A  WCI  27
Poughkeepsie   FAIR      35  24  64 W7        29.99R WCI  29
Albany         CLOUDY    34  23  64 W14G25    29.98R WCI  25
$$

NJZ001-105-106-008-010-013-015-019>022-104-200600-
New Jersey

CITY           SKY/WX    TMP DP  RH WIND       PRES   REMARKS
Newark/Liberty FAIR      38  25  59 W12       30.04R WCI  30
Teterboro      FAIR      38  23  55 NW17G24   30.02R WCI  28
Caldwell       FAIR      37  22  54 NW12G22   30.04R WCI  29
Somerville     FAIR      37  25  61 NW9       30.05R WCI  30
Linden         FAIR      37  24  59 NW10G20   30.05R WCI  30
Perth Amboy      N/A     39 N/A N/A NW16        N/A  WCI  30
Sussex         MOCLDY    36  24  62 VRB3      30.03R
Andover          N/A     34  22  61 NW8       30.04R WCI  27
Trenton        CLOUDY    38  27  64 NW7       30.07R WCI  33
Millville      FAIR      39  24  55 W7        30.09S WCI  34
Atlantic City  FAIR      40  26  57 W10       30.08R WCI  33
Wrightstown    LGT RAIN  39  28  65 NW10      30.05  WCI  32
Toms River     LGT RAIN  38  28  67 NW16      30.07R WCI  29
Belmar         FAIR      39  26  59 W12G21    30.05R WCI  32
$$

PAZ047>061-062-071-200600-
Eastern Pennsylvania

CITY           SKY/WX    TMP DP  RH WIND       PRES   REMARKS
Philadelphia   FAIR      41  22  46 NW14      30.10R
Allentown      FAIR      37  25  61 NW13      30.08R WCI  29
Scranton       CLOUDY    32  26  78 NW12G20   30.06R WCI  23
$$

CTZ002-004>006-009-010-012-RIZ004-006-007-MAZ004-011-015-200600-
Southern New England

 In CT

CITY           SKY/WX    TMP DP  RH WIND       PRES   REMARKS
Bradley Intl   CLOUDY    36  26  67 NW10      29.93R WCI  28
Hartford       CLOUDY    38  25  59 NW9       29.94R WCI  31
Danbury        FAIR      35  24  64 NW8G20    29.98R WCI  29
Wtrbury/Oxford MOCLDY    33  26  75 NW5       29.95R WCI  29
Norwalk Harbor   N/A     36 N/A N/A W14         N/A  WCI  27
Bridgeport     FAIR      37  26  64 W7        29.97R WCI  32
Meriden        FAIR      36  25  64 NW8G23    29.95R WCI  30
New Haven      FAIR      39  26  59 NW7       29.96R WCI  34
Chester        FAIR      36  25  64 VRB7G23   29.92R WCI  30
Groton         FAIR      38  28  67 W8        29.92R WCI  32
Willimantic    FAIR      38  28  67 W10       29.91R WCI  31

 In RI

CITY           SKY/WX    TMP DP  RH WIND       PRES   REMARKS
Providence     CLOUDY    39  31  72 NW15G22   29.88R WCI  31
Block Island   CLOUDY    38  30  73 NW13G22   29.91R WCI  30
Westerly       CLOUDY    39  30  70 VRB6      29.91R WCI  35

In MA

CITY           SKY/WX    TMP DP  RH WIND       PRES   REMARKS
Boston         CLOUDY    40  30  67 W15       29.84R WCI  32
Worcester      CLOUDY    32  27  81 W17       29.84R WCI  21
Westfield      CLOUDY    37  26  64 NW12G20   29.92R WCI  29
Provincetown   CLOUDY    40  33  76 NW16G23   29.82R WCI  31
Nantucket      LGT RAIN  40  36  86 NW15G23   29.82R WCI  32
$$

ANZ330-335-338-340-345-350-353-355-200600-
Coastal Marine Observations


STATION/POSITION TIME  SKY/WX   TEMP    WIND        PRES    VSBY  WAVE
                                AIR SEA DIR/SP/G                  HT/PER
                 (UTC)          (F)     (DEG/KT/KT) (MB)    (MI)  (FT/S)
NY Harb Entrance 0450            40 44  310/ 21/ 27 1016.7          4/ 4
20 S Fire Island 0450            41 42  310/ 21/ 27 1015.2          7/ 6
23 SSW Montauk P 0450            41 42  290/ 21/ 25 1013.4          5/ 4
15 E Barnegat Li 0430               44                N/A           5/ 5
Hudson Canyon    0450            43 45  310/ 25/ 29 1015.0          8/ 7
Kings Point      0442            39 44  360/ 22/ 27 1017.2
Execution Rocks  NOT AVBL
Western LI Sound NOT AVBL
Central LI Sound 0445            40     310/ 17/ 23   N/A           2
Robbins Reef     0442            39     310/ 18/ 23 1017.3
$$


>>>>>>>>>>>>>>>>>>>>>>>>>>>> KEY <<<<<<<<<<<<<<<<<<<<<<<<<<<
>                                                          <
>     SKY/WX - Sky Condition/Present Weather               <
>     TMP    - Temperature in Fahrenheit                   <
>     DP     - Dew Point in Fahrenheit                     <
>     RH     - Relative Humidity in Percent                <
>     WIND   - Direction (from) and Speed in MPH           <
>     PRES   - Mean Sea Level Pressure (inches of Hg)      <
>     WCI    - Wind Chill Index                            <
>     VSB    - Visibility in Miles                         <
>     HX     - Heat Index                                  <
>     TC     - Temperature in Celsius                      <
>     VRB    - Varibale Wind Direction                     <
>                                                          <
>>>>>>>>>>>>>>>>>>>>>>>>>>>> KEY <<<<<<<<<<<<<<<<<<<<<<<<<<<




USA.gov is the U.S. government's official web portal to all federal, state and local government web resources and services.